Flag for Sierra Leone Weather past 2 weeks in Bo, Sierra Leone

Now
73 °F

Passing clouds.


Feels Like: 70 °F
Forecast: 69 / 83 °F
Wind: 3 mph from Northeast

Location: Roberts Field

Current Time: Sep 20, 2014 at 6:09:03 AM

Latest Report: Sep 20, 2014 at 4:00 AM


Visibility: N/A

Pressure: 29.92 "Hg

Humidity: 94%

Dew point: 72 °F

Location of BoLocation

Historic Weather in Bo — Graph

°F

Bo temperature yesterday

Maximum temperature yesterday: 82 °F (at 12:00 PM)
Minimum temperature yesterday: 73 °F (at 12:00 AM)
Average temperature yesterday: 77 °F

Past Weeks' High & Low Weather Summary

 TemperatureHumidityPressure
High86 °F (Sep 8, 2:00 PM)100% (Sep 16, 7:30 AM)30.04 "Hg (Sep 16, 7:30 AM)
Low73 °F (Sep 8, 6:00 AM)66% (Sep 8, 2:30 PM)29.83 "Hg (Sep 12, 5:30 PM)
Average78 °F90%29.93 "Hg
* Reported Sep 5 10:00 AM — Sep 20 4:00 AM, Bo, Weather by CustomWeather, © 2014

Note: Actual official high and low records may vary slightly from our data, if they occured in-between our weather recording intervals... More about our weather records

Advertising

Bo weather history for previous 24 hours

 ConditionsComfort  
Time TempWeatherWind HumidityBarometerVisibility
4:00 AM
Sep 20
73 °FPassing clouds.3 mph94%29.92 "HgN/A
3:30 AM73 °FPassing clouds.No wind94%29.92 "HgN/A
3:00 AM73 °FPassing clouds.No wind94%29.92 "HgN/A
2:30 AM73 °FPassing clouds.No wind94%29.95 "HgN/A
1:00 AM73 °FPassing clouds.No wind94%29.95 "HgN/A
12:30 AM73 °FPassing clouds.No wind94%29.95 "HgN/A
12:00 AM73 °FPassing clouds.No wind94%29.98 "HgN/A
11:30 PM
Sep 19
73 °FPassing clouds.No wind94%29.98 "HgN/A
11:00 PM75 °FPassing clouds.No wind94%29.98 "HgN/A
9:00 PM77 °FPassing clouds.No wind94%29.95 "HgN/A
8:30 PM77 °FPassing clouds.No wind94%29.95 "HgN/A
8:00 PM77 °FPassing clouds.No wind94%29.95 "HgN/A
7:00 PM79 °FPassing clouds.3 mph84%29.92 "HgN/A
6:30 PM79 °FPassing clouds.3 mph84%29.92 "HgN/A
6:00 PM79 °FPassing clouds.3 mph84%29.89 "HgN/A
5:30 PM81 °FScattered clouds.3 mph79%29.89 "HgN/A
5:00 PM81 °FScattered clouds.10 mph84%29.89 "HgN/A
4:30 PM81 °FScattered clouds.6 mph84%29.89 "HgN/A
4:00 PM81 °FScattered clouds.9 mph84%29.89 "HgN/A
3:30 PM82 °FPartly sunny.9 mph79%29.89 "HgN/A
3:00 PM82 °FPartly sunny.5 mph79%29.89 "HgN/A
2:30 PM82 °FPartly sunny.5 mph79%29.89 "HgN/A
2:00 PM81 °FPartly sunny.6 mph84%N/AN/A
1:30 PM81 °FPartly sunny.6 mph84%29.92 "HgN/A
1:00 PM81 °FPartly sunny.7 mph84%29.92 "HgN/A
12:30 PM81 °FRain showers. Partly sunny.5 mph84%29.95 "Hg5 mi
12:00 PM82 °FPartly sunny.5 mph79%29.95 "HgN/A
11:30 AM81 °FPartly sunny.3 mph84%29.95 "HgN/A
11:00 AM81 °FPartly sunny.No wind84%29.98 "HgN/A
10:30 AM79 °FPartly sunny.5 mph84%29.98 "HgN/A
10:00 AM77 °FPartly sunny.No wind89%29.98 "HgN/A
9:30 AM77 °FPartly sunny.5 mph94%29.98 "HgN/A
9:00 AM75 °FPartly sunny.5 mph94%29.98 "HgN/A
8:35 AM75 °FLight rain. Partly sunny.No wind94%29.98 "Hg5 mi
8:30 AM75 °FPartly sunny.3 mph94%29.95 "HgN/A
8:00 AM73 °FPartly sunny.No wind94%29.95 "HgN/A
7:30 AM73 °FPassing clouds.No wind94%29.92 "HgN/A
7:00 AM73 °FPassing clouds.No wind94%29.92 "Hg4 mi
6:30 AM73 °FPassing clouds.No wind94%29.92 "Hg5 mi
6:00 AM73 °FPassing clouds.No wind94%29.92 "Hg4 mi
Weather by CustomWeather, © 2014

See weather overviewHow to use our weather pages